Regional Weather Roundup
Issued by NWS

Home | Current Version | Previous Version | Graphics & Text | Print | Product List | Glossary On
Versions: 1 2 3 4 5 6 7 8 9 10 11 12 13 14 15 16 17 18 19 20 21 22 23 24 25 26 27 28 29 30 31 32 33 34 35 36 37 38 39 40 41 42 43 44 45 46 47 48 49 50
828
ASUS45 KABQ 090210
RWRNM
NEW MEXICO REGIONAL WEATHER ROUNDUP
NATIONAL WEATHER SERVICE ALBUQUERQUE NM
700 PM MST THU DEC 08 2016

NOTE: "FAIR" MEANS FEW OR NO CLOUDS BELOW 12,000 FEET AGL WITH NO
       SIGNIFICANT WEATHER OR OBSTRUCTIONS TO VISION.

      THIS PRODUCT IS RELEASED AS TWO VERSIONS.  ONE VERSION NEAR
      THE TOP OF THE HOUR CONTAINING PRELIMINARY DATA FROM ALBUQUERQUE
      AND OTHER STATIONS.  A FINAL VERSION WITH ADDITIONAL DATA IS
      ISSUED ABOUT 10 MINUTES AFTER THE HOUR.

NMZ501-503-504-510>518-090300-
NORTHWEST PLATEAU/NORTHCENTRAL MOUNTAINS

CITY           SKY/WX    TMP DP  RH WIND       PRES   REMARKS
FARMINGTON     CLOUDY    33  17  51 E5        30.28R WCI  29
LOS ALAMOS     FAIR      30  17  57 W5        30.31S WCI  25
SANTA FE       FAIR      23  14  68 E5        30.32S WCI  17
TAOS           FAIR      23   9  54 S3        30.31R
ANGEL FIRE     FAIR      22  11  63 CALM      30.27R

$$
NMZ402-403-502-505>509-090300-
WESTCENTRAL MOUNTAINS/SOUTHWEST MOUNTAINS

CITY           SKY/WX    TMP DP  RH WIND       PRES   REMARKS
GALLUP         FAIR      34  19  54 CALM      30.29R
GRANTS         FAIR      30  17  59 S9        30.32S WCI  21

$$
NMZ407-409-411-412-090300-
SOUTHERN DESERTS

CITY           SKY/WX    TMP DP  RH WIND       PRES   REMARKS
DEMING         FAIR      39  27  62 E10       30.36R WCI  32
LAS CRUCES     FAIR      35  25  66 SE13      30.38R WCI  26
HOLLOMAN AFB   FAIR      33  23  67 S10       30.44R WCI  25
T OR C         FAIR      39  24  55 S5        30.33R

$$
NMZ519>523-090300-
CENTRAL VALLEYS/CENTRAL HIGHLANDS

CITY           SKY/WX    TMP DP  RH WIND       PRES   REMARKS
ALBUQUERQUE    FAIR      36  16  44 CALM      30.35R
DOUBLE EAGLE   CLEAR     21  10  63 CALM      30.35R
MORIARTY ARPT  FAIR      18  14  86 S5        30.35R WCI  11
CLINES CORNERS FAIR      18  14  84 W7        30.31R WCI   9
BELEN          FAIR      30  17  58 CALM      30.35R
SOCORRO        FAIR      34  25  68 S7        30.35S WCI  28

$$
NMZ524>526-539-540-090300-
SOUTHCENTRAL MOUNTAINS

CITY           SKY/WX    TMP DP  RH WIND       PRES   REMARKS
RUIDOSO        FOG       19  19 100 CALM      30.36F VSB 1/4

$$
NMZ527>531-090300-
NORTHEAST HIGHLANDS/NORTHEAST PLAINS

CITY           SKY/WX    TMP DP  RH WIND       PRES   REMARKS
LAS VEGAS      FOG       17  16  95 S17       30.27F VSB 1/4 WCI   1
RATON          CLOUDY    15  11  83 SW9       30.29S WCI   3
CLAYTON        CLOUDY    19  13  77 S14       30.40R WCI   6

$$
NMZ532>537-090300-
EASTCENTRAL PLAINS

CITY           SKY/WX    TMP DP  RH WIND       PRES   REMARKS
TUCUMCARI      CLOUDY    25  17  72 SW10      30.46S WCI  15
CANNON AFB     CLOUDY    25  16  69 S8        30.46S WCI  16
CLOVIS AIRPORT CLOUDY    25  10  54 S10       30.47S WCI  15

$$
NMZ028-029-538-090300-
SOUTHEAST PLAINS

CITY           SKY/WX    TMP DP  RH WIND       PRES   REMARKS
ROSWELL        CLOUDY    30  20  66 S9        30.50R WCI  22
ARTESIA        CLOUDY    30  27  86 S10       30.52S WCI  21
CARLSBAD       NOT AVBL


$$




USA.gov is the U.S. government's official web portal to all federal, state and local government web resources and services.